Retour au catalogue

STARLINK-35796

ActifCommunicationsVLEO
NORAD 66541·PAYLOAD·🇺🇸 United States

Lancé Nov 19, 2025 depuis Cape Canaveral Space Force Station

Loading…

Prochains Passages (prochaines 24 heures)

TLE

FraisSource: CelesTrak SupGP

Époque: Sep 15, 2026, 03:19 UTC

1 66541C 25265AB  26258.13868056  .00000652  00000+0  23606-4 0  2583
2 66541  43.0003 288.1379 0001170 262.8517 178.9765 15.27577801    19

Suivez STARLINK-35796 en temps réel avec AllMySat

Download on the App Store